[[{"header":{"parameterUnit":"m.s-1","parameterCategory":1,"la1":30.2991,"la2":30.254,"lo1":-89.0895,"lo2":-89.0444,"dy":0.0017,"dx":0.0017,"nx":28,"ny":28,"refTime":"2024-07-27T03:00:00:Z","depth":0,"parameterNumber":2,"parameterNumberName":"U-component_of_WINDS"},"data":[0,0,0,0,0,0,0,0,0,0,0,0,0,0,0,0,0,0,0,0,0,0,0,0,0,0,0,0,0,0,0,0,0,0,0,0,0,0,0,0,0,0,0,0,0,0,0,0,0,0,0,0,0,0,0,0,0,0,1.642,1.6422,0,1.6626,1.6628,1.663,1.6704,1.6704,1.6703,1.6702,1.6923,1.693,1.6936,0,0,0,0,0,0,0,0,0,0,0,0,0,1.6101,1.6107,1.642,1.6422,1.6425,1.6625,1.6628,1.6631,1.6705,1.6704,1.6703,1.6702,1.6921,1.6929,1.6937,0,0,0,0,0,0,0,0,0,0,0,0,0,1.6267,1.6108,1.6419,1.6485,1.6493,1.6625,1.6628,1.6632,1.6705,1.6704,1.6703,1.6701,1.6918,1.6928,1.6938,1.7021,0,0,1.6968,1.6972,0,0,0,0,0,0,0,0,1.6257,1.6278,1.6473,1.6481,1.649,1.6638,1.6597,1.6763,1.6705,1.6625,1.6702,1.6701,1.683,1.6847,1.6888,1.7032,1.7041,1.6969,1.6975,1.6979,1.6982,0,0,0,0,0,0,0,1.6246,1.627,1.6501,1.6476,1.6486,1.6509,1.6531,1.6629,1.6732,1.6632,1.6638,1.666,1.6834,1.6879,1.6894,1.7044,1.6969,1.6977,1.6983,1.6987,1.727,1.7272,0,0,0,0,0,0,1.6222,1.626,1.6495,1.6508,1.6368,1.6515,1.654,1.6592,1.6731,1.675,1.6661,1.6663,1.6862,1.6883,1.6902,1.7012,1.6979,1.6988,1.6994,1.7269,1.7271,1.7273,0,0,0,0,0,0,1.6214,1.6242,1.6487,1.6385,1.6418,1.6522,1.6579,1.6597,1.6641,1.6753,1.6772,1.6687,1.6862,1.6888,1.6991,1.702,1.6993,1.7002,1.7267,1.7269,1.7272,1.723,0,0,0,0,0,0,1.6205,1.6239,1.6269,1.6385,1.6423,1.6569,1.6581,1.6601,1.6656,1.6661,1.6782,1.6801,1.6863,1.6976,1.7001,1.7034,1.7009,1.7265,1.7268,1.7271,1.7229,1.723,1.7231,0,0,0,0,0,1.6193,1.625,1.627,1.6298,1.6462,1.657,1.6592,1.666,1.6658,1.6692,1.6764,1.6797,1.7012,1.6986,1.7015,1.7051,1.7263,1.7267,1.7271,1.7228,1.723,1.7231,0,0,0,0,0,0,1.6138,1.6267,1.629,1.6386,1.6466,1.6582,1.6626,1.6659,1.6744,1.6745,1.6829,1.6856,1.6953,1.7012,1.698,1.7141,1.714,1.715,1.7098,1.7101,1.7102,1.7087,1.7018,0,0,0,0,0,1.6136,1.6209,1.6319,1.6393,1.6432,1.6522,1.6571,1.6616,1.6704,1.674,1.682,1.6907,1.6995,1.7051,1.7137,1.7237,1.7267,1.7276,1.7277,1.7278,1.7286,1.7347,1.7353,1.7284,1.7284,1.7284,0,0,1.6135,1.6214,1.6256,1.6384,1.6452,1.653,1.655,1.6631,1.6691,1.6753,1.6855,1.6917,1.702,1.7122,1.7171,1.7175,1.7311,1.7282,1.7282,1.729,1.7351,1.7358,1.7363,1.7287,1.7286,1.7286,0,0,1.6172,1.6238,1.6308,1.6375,1.6476,1.6535,1.6552,1.6663,1.6706,1.6809,1.6858,1.6932,1.708,1.7152,1.7208,1.7274,1.7309,1.73,1.7307,1.7366,1.7371,1.7376,1.7403,1.7411,1.7307,1.7307,1.7307,0,1.6159,1.6274,1.6341,1.6419,1.6476,1.6532,1.6607,1.6669,1.6795,1.6835,1.6835,1.7024,1.7097,1.7218,1.7234,1.7276,1.7302,1.7288,1.7364,1.737,1.7376,1.7403,1.7412,1.7305,1.7305,1.7306,1.7306,0,1.6254,1.6334,1.6379,1.6496,1.6558,1.6633,1.6715,1.677,1.681,1.687,1.6976,1.7066,1.7173,1.7204,1.7245,1.7333,1.7332,1.7347,1.735,1.738,1.7407,1.7417,1.7303,1.7304,1.7304,1.7304,0,0,1.6264,1.6416,1.6432,1.6486,1.6602,1.6667,1.6747,1.6849,1.6896,1.6981,1.7053,1.7177,1.7192,1.7256,1.7305,1.7355,1.7406,1.7366,1.7369,1.7373,1.7513,1.7502,1.7513,1.7429,1.7431,1.7432,1.7505,0,1.6319,1.6461,1.6523,1.6639,1.6715,1.6771,1.6841,1.6922,1.6981,1.7057,1.7124,1.7211,1.7223,1.7262,1.7314,1.7388,1.7436,1.7384,1.7501,1.7504,1.7476,1.7526,1.7516,1.758,1.7516,1.7517,1.7519,0,1.6402,1.6484,1.6606,1.6715,1.6749,1.6811,1.6911,1.6981,1.7076,1.7115,1.7186,1.7233,1.7323,1.7317,1.7445,1.7408,1.746,1.7504,1.7508,1.7524,1.7515,1.7547,1.7602,1.7612,1.7535,1.7534,1.7532,0,1.6401,1.6542,1.6634,1.6679,1.6807,1.6849,1.6905,1.6998,1.7056,1.7144,1.7183,1.7281,1.7336,1.7412,1.7486,1.7474,1.7608,1.7607,1.7648,1.7646,1.7676,1.7674,1.7743,1.7703,1.7703,1.7703,1.7703,0,1.6457,1.6531,1.6635,1.6692,1.6777,1.685,1.6934,1.6994,1.7076,1.7149,1.7203,1.7271,1.7363,1.7443,1.7502,1.7601,1.7625,1.7662,1.7678,1.7659,1.7655,1.7697,1.7696,1.7706,1.7705,1.7705,1.7704,0,1.6471,1.6543,1.6648,1.676,1.679,1.6848,1.6946,1.7006,1.7066,1.7158,1.7184,1.7281,1.7379,1.7459,1.7588,1.7627,1.7732,1.7748,1.7699,1.7708,1.7745,1.7742,1.7846,1.7866,1.7809,1.781,1.781,0,1.6504,1.6561,1.6679,1.673,1.6784,1.6866,1.6925,1.6999,1.7059,1.7171,1.7218,1.7319,1.7404,1.7558,1.7643,1.7743,1.7764,1.7793,1.7779,1.776,1.7769,1.7765,1.7774,1.7796,1.7796,1.7796,1.7796,0,1.6555,1.6589,1.6669,1.6763,1.6831,1.6909,1.6989,1.7029,1.7119,1.7184,1.7283,1.7349,1.7479,1.7581,1.7689,1.7752,1.7791,1.7799,1.7815,1.7798,1.7769,1.7789,1.7707,1.7797,1.7797,1.7797,1.7797,1.7797,1.6583,1.6637,1.6729,1.6818,1.6885,1.6959,1.7021,1.7089,1.7171,1.7282,1.7321,1.7424,1.752,1.767,1.7732,1.7816,1.7821,1.7842,1.7848,1.7853,1.7852,1.7752,1.7836,1.7836,1.7836,1.7836,1.7836,0,1.664,1.6701,1.6782,1.6891,1.6962,1.6988,1.7079,1.7138,1.7226,1.7311,1.7392,1.7508,1.7607,1.7698,1.7803,1.7853,1.7873,1.7878,1.7877,1.7891,1.784,1.7818,1.7859,1.7859,1.7859,1.7859,1.7859,1.7859,1.6678,1.6773,1.6817,1.6947,1.701,1.7108,1.7158,1.7228,1.7296,1.7421,1.7502,1.756,1.7649,1.776,1.7853,1.7878,1.7916,1.7916,1.7946,1.7898,1.7894,1.7891,1.7871,1.7923,1.7923,1.7991,1.7991,1.7992]},{"header":{"parameterUnit":"m.s-1","parameterCategory":1,"la1":30.2991,"la2":30.254,"lo1":-89.0895,"lo2":-89.0444,"dy":0.0017,"dx":0.0017,"nx":28,"ny":28,"refTime":"2024-07-27T03:00:00:Z","depth":0,"parameterNumber":3,"parameterNumberName":"V-component_of_WINDS"},"data":[0,0,0,0,0,0,0,0,0,0,0,0,0,0,0,0,0,0,0,0,0,0,0,0,0,0,0,0,0,0,0,0,0,0,0,0,0,0,0,0,0,0,0,0,0,0,0,0,0,0,0,0,0,0,0,0,0,0,3.0448,3.0448,0,3.0476,3.0477,3.0477,3.0438,3.0436,3.0435,3.0433,3.0461,3.0463,3.0465,0,0,0,0,0,0,0,0,0,0,0,0,0,3.0356,3.0358,3.0448,3.0448,3.0449,3.0476,3.0477,3.0477,3.0438,3.0436,3.0434,3.0433,3.046,3.0463,3.0465,0,0,0,0,0,0,0,0,0,0,0,0,0,3.0391,3.0359,3.0448,3.0432,3.0431,3.0476,3.0477,3.0477,3.0438,3.0436,3.0434,3.0432,3.046,3.0463,3.0466,3.0527,0,0,3.0475,3.0476,0,0,0,0,0,0,0,0,3.0389,3.0395,3.0434,3.0434,3.0432,3.0451,3.0454,3.0494,3.0439,3.0436,3.0433,3.0431,3.0459,3.0462,3.0472,3.0528,3.0529,3.0475,3.0477,3.0478,3.0479,0,0,0,0,0,0,0,3.0387,3.0393,3.0459,3.0435,3.0434,3.0423,3.0426,3.0462,3.0459,3.0436,3.0433,3.0437,3.0458,3.0469,3.0473,3.0529,3.0475,3.0478,3.048,3.0481,3.0632,3.0634,0,0,0,0,0,0,3.0387,3.0392,3.0458,3.046,3.0405,3.0426,3.0429,3.0447,3.0458,3.0458,3.0439,3.0435,3.0465,3.0469,3.0473,3.0543,3.0478,3.0481,3.0483,3.063,3.0633,3.0635,0,0,0,0,0,0,3.0385,3.0393,3.0457,3.0425,3.0432,3.043,3.0451,3.0449,3.046,3.0461,3.046,3.0451,3.0464,3.0469,3.0513,3.0544,3.0483,3.0485,3.0628,3.0631,3.0634,3.0684,0,0,0,0,0,0,3.0383,3.0393,3.0417,3.0426,3.0434,3.0497,3.0453,3.0451,3.0465,3.0461,3.0472,3.0471,3.0463,3.0509,3.0516,3.0547,3.0488,3.0625,3.0629,3.0633,3.068,3.0689,3.0697,0,0,0,0,0,3.0379,3.0431,3.0419,3.0427,3.0465,3.0499,3.0504,3.0493,3.0468,3.0492,3.0491,3.0471,3.0539,3.0513,3.0521,3.0554,3.0623,3.0628,3.0633,3.0676,3.0687,3.0696,0,0,0,0,0,0,3.0426,3.0432,3.0418,3.0474,3.0486,3.0493,3.0522,3.0506,3.0525,3.052,3.0505,3.0508,3.0554,3.0558,3.053,3.0611,3.0577,3.0583,3.0607,3.0617,3.0626,3.0623,3.049,0,0,0,0,0,3.0443,3.0471,3.0474,3.0523,3.053,3.0525,3.054,3.053,3.0542,3.0547,3.055,3.0562,3.0586,3.0602,3.0624,3.068,3.0681,3.0706,3.0714,3.0721,3.0727,3.0754,3.0765,3.0651,3.0651,3.0651,0,0,3.0478,3.0484,3.0503,3.0533,3.0541,3.0569,3.053,3.0562,3.0582,3.0552,3.0593,3.0595,3.0607,3.0657,3.0679,3.0662,3.0758,3.0727,3.0733,3.0735,3.076,3.0771,3.078,3.0655,3.0654,3.0654,0,0,3.0555,3.0564,3.0604,3.0613,3.0626,3.0622,3.0631,3.0639,3.064,3.0681,3.0657,3.0681,3.0723,3.0731,3.0741,3.0818,3.0799,3.0826,3.0869,3.0896,3.0905,3.0913,3.0938,3.0948,3.0832,3.0832,3.0832,0,3.0597,3.064,3.0627,3.066,3.0672,3.0645,3.0684,3.0694,3.0713,3.0721,3.0702,3.0752,3.0758,3.0808,3.0826,3.0836,3.0845,3.0825,3.0905,3.0912,3.0919,3.0944,3.0953,3.0835,3.0835,3.0834,3.0834,0,3.0689,3.0719,3.0749,3.0768,3.0783,3.082,3.0811,3.0828,3.0816,3.0813,3.0854,3.086,3.0881,3.0893,3.0882,3.094,3.0929,3.0907,3.0872,3.0933,3.0956,3.0965,3.0839,3.0838,3.0837,3.0837,0,0,3.0799,3.0807,3.0819,3.0825,3.0836,3.0858,3.0891,3.0912,3.0926,3.094,3.0966,3.1001,3.098,3.0991,3.0981,3.1005,3.1062,3.098,3.098,3.0993,3.1124,3.1139,3.115,3.105,3.1052,3.1053,3.1122,0,3.0875,3.0933,3.0921,3.0977,3.1003,3.0976,3.1004,3.1013,3.1011,3.1031,3.1028,3.1052,3.1025,3.1031,3.1053,3.1051,3.1088,3.1046,3.1073,3.1074,3.107,3.1162,3.1179,3.1244,3.1131,3.1132,3.1134,0,3.0972,3.0987,3.1046,3.1049,3.106,3.1086,3.1102,3.1123,3.1131,3.1127,3.1138,3.1123,3.1154,3.1119,3.1161,3.1132,3.1142,3.1142,3.1145,3.1146,3.1107,3.1164,3.1265,3.1274,3.1148,3.1146,3.1145,0,3.1043,3.1079,3.1118,3.1124,3.113,3.1149,3.1152,3.1158,3.117,3.1184,3.1192,3.1209,3.1219,3.1232,3.1221,3.1197,3.1264,3.1228,3.126,3.126,3.1275,3.1274,3.1377,3.1284,3.1284,3.1284,3.1283,0,3.1128,3.1165,3.1149,3.1173,3.1212,3.1197,3.1236,3.1236,3.1241,3.1263,3.1242,3.1263,3.1247,3.1267,3.1258,3.1293,3.1298,3.1294,3.1291,3.1296,3.1296,3.1302,3.1296,3.1286,3.1286,3.1285,3.1285,0,3.1214,3.1206,3.1246,3.1247,3.1248,3.1277,3.1277,3.1299,3.1294,3.1322,3.1328,3.132,3.1342,3.1332,3.1355,3.1348,3.1392,3.1384,3.139,3.1387,3.1419,3.1416,3.1528,3.1541,3.1441,3.1442,3.1443,0,3.1269,3.1296,3.1299,3.1312,3.1317,3.1338,3.135,3.1335,3.1348,3.1358,3.1378,3.1397,3.1412,3.1447,3.1443,3.1459,3.1451,3.1489,3.1453,3.1456,3.1449,3.1447,3.1449,3.1496,3.1497,3.1498,3.1499,0,3.1366,3.1359,3.1377,3.1393,3.1407,3.1419,3.1428,3.144,3.1425,3.1441,3.1462,3.1473,3.1495,3.1514,3.1528,3.153,3.1512,3.151,3.1518,3.1522,3.1524,3.1522,3.1408,3.1507,3.1507,3.1506,3.1505,3.1505,3.1436,3.1458,3.1463,3.1483,3.1488,3.1497,3.1516,3.1513,3.153,3.1547,3.1537,3.1561,3.1566,3.1583,3.1587,3.1605,3.159,3.1602,3.1605,3.1608,3.1611,3.1521,3.1608,3.1607,3.1607,3.1607,3.1607,0,3.153,3.1531,3.155,3.1563,3.1578,3.1559,3.1568,3.1581,3.1603,3.1609,3.1623,3.1646,3.1664,3.166,3.1676,3.1691,3.1682,3.1695,3.1693,3.1694,3.1625,3.1616,3.1701,3.1701,3.1701,3.1701,3.1701,3.1701,3.1581,3.1616,3.1609,3.1646,3.1646,3.167,3.1676,3.1683,3.1688,3.1714,3.1729,3.1726,3.1728,3.1743,3.1757,3.1756,3.1762,3.1778,3.1773,3.1708,3.1699,3.169,3.1681,3.1779,3.178,3.184,3.1841,3.1841]}]]